Location: Treviso
(45.6669°N, 12.2430°E)
Time: 21:26:15
(UTC+01:00)

ISS - Pass Details

Date: 21 November 2023
Orbit: 415 x 417 km, 51.6° (Epoch: 06 December)

Event Time Altitude Azimuth Distance (km) Brightness Sun altitude
Rises 18:14:20 0° 256° (WSW) 2,355 1.9 -17.1°
Reaches altitude 10° 18:16:28 10° 262° (W) 1,494 0.4 -17.5°
Maximum altitude 18:19:44 49° 339° (NNW) 547 -3.2 -18.0°
Enters shadow 18:20:25 41° 19° (NNE) 620 -3.2 -18.2°
